| time (UTC) | temp F | wind direction | speed knots | gust knots | rain 1hr in | rain 24hr in | rain mn in | humidity % | barometer mb |
| 20260506024746 | 50 | 8 | 2.6 | 4.3 | 0.00 | 0.00 | 0.00 | 81 | 1012.5 |
| 20260506024243 | 50 | 11 | 1.7 | 3.5 | 0.00 | 0.00 | 0.00 | 81 | 1012.5 |
| 20260506023743 | 50 | 1 | 2.6 | 3.5 | 0.00 | 0.00 | 0.00 | 81 | 1012.5 |
| 20260506023244 | 50 | 5 | 2.6 | 4.3 | 0.00 | 0.00 | 0.00 | 81 | 1012.7 |
| 20260506022744 | 50 | 295 | 0.9 | 1.7 | 0.00 | 0.00 | 0.00 | 81 | 1012.7 |
| 20260506022243 | 50 | 334 | 1.7 | 1.7 | 0.00 | 0.00 | 0.00 | 82 | 1012.5 |
| 20260506021743 | 50 | 333 | 1.7 | 2.6 | 0.00 | 0.00 | 0.00 | 82 | 1012.4 |
| 20260506021245 | 50 | 12 | 2.6 | 3.5 | 0.00 | 0.00 | 0.00 | 82 | 1012.4 |
| 20260506020744 | 50 | 320 | 2.6 | 3.5 | 0.00 | 0.00 | 0.00 | 82 | 1012.4 |
| 20260506020245 | 50 | 336 | 1.7 | 1.7 | 0.00 | 0.00 | 0.00 | 82 | 1012.3 |
| 20260506015743 | 50 | 0 | 1.7 | 2.6 | 0.00 | 0.00 | 0.00 | 82 | 1012.1 |
| 20260506015244 | 50 | 355 | 1.7 | 3.5 | 0.00 | 0.00 | 0.00 | 82 | 1012.2 |
| 20260506014744 | 50 | 2 | 2.6 | 4.3 | 0.00 | 0.00 | 0.00 | 82 | 1012.2 |
| 20260506014244 | 50 | 340 | 1.7 | 3.5 | 0.00 | 0.00 | 0.00 | 81 | 1012.0 |
| 20260506013745 | 50 | 258 | 0.9 | 1.7 | 0.00 | 0.00 | 0.00 | 81 | 1012.0 |
| 20260506013244 | 50 | 2 | 2.6 | 3.5 | 0.00 | 0.00 | 0.00 | 80 | 1011.8 |
| 20260506012746 | 50 | 350 | 1.7 | 3.5 | 0.00 | 0.00 | 0.00 | 80 | 1011.9 |
| 20260506012244 | 51 | 347 | 1.7 | 3.5 | 0.00 | 0.00 | 0.00 | 80 | 1011.9 |
| 20260506011743 | 51 | 343 | 0.9 | 0.9 | 0.00 | 0.00 | 0.00 | 80 | 1011.9 |
| 20260506011243 | 51 | 328 | 1.7 | 1.7 | 0.00 | 0.00 | 0.00 | 80 | 1011.7 |
| 20260506010743 | 51 | 348 | 2.6 | 2.6 | 0.00 | 0.00 | 0.00 | 80 | 1011.6 |
| 20260506010244 | 51 | 0 | 2.6 | 3.5 | 0.00 | 0.00 | 0.00 | 80 | 1011.4 |
| 20260506005744 | 51 | 13 | 0.9 | 1.7 | 0.00 | 0.00 | 0.00 | 80 | 1011.3 |
| 20260506005243 | 51 | 2 | 1.7 | 2.6 | 0.00 | 0.00 | 0.00 | 80 | 1011.2 |
| 20260506004743 | 51 | 2 | 1.7 | 2.6 | 0.00 | 0.00 | 0.00 | 80 | 1010.9 |
| 20260506004246 | 51 | 355 | 1.7 | 2.6 | 0.00 | 0.00 | 0.00 | 80 | 1010.7 |
| 20260506003745 | 51 | 24 | 2.6 | 3.5 | 0.00 | 0.00 | 0.00 | 79 | 1010.7 |
| 20260506003243 | 51 | 3 | 2.6 | 3.5 | 0.00 | 0.00 | 0.00 | 79 | 1010.7 |
| 20260506002746 | 51 | 350 | 1.7 | 1.7 | 0.00 | 0.00 | 0.00 | 78 | 1010.6 |
| 20260506002245 | 51 | 2 | 1.7 | 2.6 | 0.00 | 0.00 | 0.00 | 78 | 1010.7 |
| 20260506001745 | 51 | 4 | 1.7 | 1.7 | 0.00 | 0.00 | 0.00 | 78 | 1010.5 |
| 20260506001244 | 52 | 0 | 1.7 | 2.6 | 0.00 | 0.00 | 0.00 | 78 | 1010.4 |
| 20260506000743 | 52 | 24 | 1.7 | 2.6 | 0.00 | 0.00 | 0.00 | 77 | 1010.5 |
| 20260506000243 | 52 | 0 | 1.7 | 1.7 | 0.00 | 0.00 | 0.00 | 77 | 1010.6 |
| 20260505235743 | 52 | 0 | 2.6 | 3.5 | 0.00 | 0.00 | 0.00 | 76 | 1010.5 |
| 20260505235245 | 52 | 7 | 0.9 | 1.7 | 0.00 | 0.00 | 0.00 | 76 | 1010.3 |
| 20260505234743 | 52 | 355 | 2.6 | 3.5 | 0.00 | 0.00 | 0.00 | 76 | 1010.2 |
| 20260505234243 | 52 | 346 | 3.5 | 3.5 | 0.00 | 0.00 | 0.00 | 75 | 1010.2 |
| 20260505233743 | 52 | 1 | 2.6 | 2.6 | 0.00 | 0.00 | 0.00 | 75 | 1010.3 |
| 20260505233243 | 52 | 5 | 1.7 | 1.7 | 0.00 | 0.00 | 0.00 | 75 | 1010.6 |
| 20260505232743 | 52 | 2 | 1.7 | 2.6 | 0.00 | 0.00 | 0.00 | 74 | 1010.8 |
| 20260505232244 | 53 | 22 | 0.9 | 1.7 | 0.00 | 0.00 | 0.00 | 74 | 1010.8 |
| 20260505231744 | 53 | 8 | 0.9 | 1.7 | 0.00 | 0.00 | 0.00 | 74 | 1010.7 |
| 20260505231243 | 53 | 5 | 1.7 | 1.7 | 0.00 | 0.00 | 0.00 | 74 | 1010.5 |
| 20260505230745 | 53 | 334 | 1.7 | 3.5 | 0.00 | 0.00 | 0.00 | 74 | 1010.4 |
| 20260505230245 | 53 | 354 | 1.7 | 2.6 | 0.00 | 0.00 | 0.00 | 74 | 1010.2 |
| 20260505225743 | 53 | 353 | 0.9 | 1.7 | 0.00 | 0.00 | 0.00 | 74 | 1010.0 |
| 20260505225243 | 53 | 358 | 1.7 | 1.7 | 0.00 | 0.00 | 0.00 | 73 | 1010.2 |
| 20260505224743 | 53 | 14 | 1.7 | 3.5 | 0.00 | 0.00 | 0.00 | 74 | 1010.2 |
| 20260505224243 | 53 | 39 | 1.7 | 1.7 | 0.00 | 0.00 | 0.00 | 74 | 1010.1 |
| 20260505223745 | 53 | 28 | 2.6 | 3.5 | 0.00 | 0.00 | 0.00 | 74 | 1010.1 |
| 20260505223243 | 53 | 359 | 1.7 | 3.5 | 0.00 | 0.00 | 0.00 | 74 | 1010.1 |
| 20260505222745 | 53 | 1 | 1.7 | 3.5 | 0.00 | 0.00 | 0.00 | 74 | 1010.0 |
| 20260505222244 | 54 | 358 | 0.9 | 1.7 | 0.00 | 0.00 | 0.00 | 74 | 1010.1 |
| 20260505221743 | 54 | 50 | 0.9 | 1.7 | 0.00 | 0.00 | 0.00 | 74 | 1009.8 |
| 20260505221244 | 54 | 17 | 1.7 | 1.7 | 0.00 | 0.00 | 0.00 | 74 | 1009.6 |
| 20260505220743 | 54 | 21 | 1.7 | 1.7 | 0.00 | 0.00 | 0.00 | 74 | 1009.8 |
| 20260505220243 | 54 | 350 | 1.7 | 2.6 | 0.00 | 0.00 | 0.00 | 74 | 1009.7 |
| 20260505215745 | 54 | 354 | 1.7 | 2.6 | 0.00 | 0.00 | 0.00 | 74 | 1009.7 |
| 20260505215245 | 54 | 5 | 2.6 | 4.3 | 0.00 | 0.00 | 0.00 | 73 | 1009.7 |
| 20260505214744 | 54 | 18 | 3.5 | 5.2 | 0.00 | 0.00 | 0.00 | 73 | 1009.5 |
| 20260505214246 | 54 | 16 | 1.7 | 3.5 | 0.00 | 0.00 | 0.00 | 74 | 1009.1 |
| 20260505213748 | 54 | 12 | 3.5 | 5.2 | 0.00 | 0.00 | 0.00 | 73 | 1009.1 |
| 20260505213244 | 54 | 9 | 3.5 | 4.3 | 0.00 | 0.00 | 0.00 | 73 | 1009.0 |
| 20260505212743 | 54 | 354 | 2.6 | 3.5 | 0.00 | 0.00 | 0.00 | 73 | 1009.1 |
| 20260505212244 | 54 | 2 | 2.6 | 3.5 | 0.00 | 0.00 | 0.00 | 73 | 1009.2 |
| 20260505211744 | 54 | 356 | 2.6 | 2.6 | 0.00 | 0.00 | 0.00 | 73 | 1009.2 |
| 20260505211245 | 54 | 14 | 1.7 | 2.6 | 0.00 | 0.00 | 0.00 | 73 | 1009.1 |
| 20260505210743 | 54 | 357 | 2.6 | 4.3 | 0.00 | 0.00 | 0.00 | 73 | 1008.5 |
| 20260505210243 | 55 | 6 | 2.6 | 3.5 | 0.00 | 0.00 | 0.00 | 73 | 1009.1 |
| 20260505205744 | 54 | 349 | 1.7 | 2.6 | 0.00 | 0.00 | 0.00 | 74 | 1008.5 |
| 20260505205246 | 54 | 7 | 3.5 | 3.5 | 0.00 | 0.00 | 0.00 | 74 | 1008.8 |
| 20260505204743 | 54 | 8 | 2.6 | 3.5 | 0.00 | 0.00 | 0.00 | 75 | 1009.1 |
| 20260505204244 | 55 | 1 | 2.6 | 2.6 | 0.00 | 0.00 | 0.00 | 74 | 1009.7 |
| 20260505203743 | 55 | 19 | 2.6 | 2.6 | 0.00 | 0.00 | 0.00 | 73 | 1010.0 |
| 20260505203243 | 55 | 357 | 1.7 | 3.5 | 0.00 | 0.00 | 0.00 | 74 | 1009.5 |
| 20260505202746 | 55 | 14 | 0.9 | 1.7 | 0.00 | 0.00 | 0.00 | 74 | 1009.0 |
| 20260505202243 | 55 | 348 | 2.6 | 3.5 | 0.00 | 0.00 | 0.00 | 74 | 1009.0 |
| 20260505201743 | 55 | 351 | 1.7 | 2.6 | 0.00 | 0.00 | 0.00 | 75 | 1008.9 |
| 20260505201245 | 55 | 20 | 2.6 | 2.6 | 0.00 | 0.00 | 0.00 | 75 | 1008.6 |
| 20260505200745 | 55 | 352 | 1.7 | 2.6 | 0.00 | 0.00 | 0.00 | 76 | 1008.6 |
| 20260505200243 | 55 | 0 | 2.6 | 5.2 | 0.00 | 0.00 | 0.00 | 77 | 1008.8 |
| 20260505195745 | 55 | 355 | 3.5 | 3.5 | 0.00 | 0.00 | 0.00 | 76 | 1008.9 |
| 20260505195246 | 55 | 353 | 2.6 | 3.5 | 0.00 | 0.00 | 0.00 | 78 | 1008.6 |
| 20260505194745 | 55 | 11 | 3.5 | 5.2 | 0.00 | 0.00 | 0.00 | 78 | 1008.6 |
| 20260505194243 | 55 | 356 | 2.6 | 3.5 | 0.00 | 0.00 | 0.00 | 77 | 1008.8 |
| 20260505193744 | 55 | 359 | 1.7 | 2.6 | 0.00 | 0.00 | 0.00 | 77 | 1008.8 |
| 20260505193243 | 55 | 350 | 1.7 | 2.6 | 0.00 | 0.00 | 0.00 | 78 | 1008.8 |
| 20260505192745 | 55 | 336 | 1.7 | 2.6 | 0.00 | 0.00 | 0.00 | 78 | 1008.6 |
| 20260505192243 | 55 | 341 | 1.7 | 2.6 | 0.00 | 0.00 | 0.00 | 79 | 1008.8 |
| 20260505191745 | 55 | 355 | 1.7 | 2.6 | 0.00 | 0.00 | 0.00 | 80 | 1008.6 |
| 20260505191245 | 55 | 2 | 2.6 | 4.3 | 0.00 | 0.00 | 0.00 | 80 | 1008.5 |
| 20260505190744 | 55 | 349 | 1.7 | 2.6 | 0.00 | 0.00 | 0.00 | 80 | 1008.4 |
| 20260505190245 | 55 | 351 | 1.7 | 2.6 | 0.00 | 0.00 | 0.00 | 80 | 1008.5 |
| 20260505185743 | 55 | 0 | 2.6 | 4.3 | 0.00 | 0.00 | 0.00 | 81 | 1008.6 |
| 20260505185243 | 56 | 0 | 3.5 | 4.3 | 0.00 | 0.00 | 0.00 | 80 | 1008.6 |
| 20260505184744 | 56 | 6 | 1.7 | 2.6 | 0.00 | 0.00 | 0.00 | 81 | 1008.4 |
| 20260505184243 | 56 | 3 | 3.5 | 4.3 | 0.00 | 0.00 | 0.00 | 80 | 1008.4 |
| 20260505183744 | 56 | 345 | 2.6 | 3.5 | 0.00 | 0.00 | 0.00 | 79 | 1008.3 |
| 20260505183245 | 56 | 356 | 1.7 | 2.6 | 0.00 | 0.00 | 0.00 | 79 | 1008.2 |
| 20260505182743 | 56 | 0 | 3.5 | 3.5 | 0.00 | 0.00 | 0.00 | 79 | 1008.2 |
| 20260505182245 | 57 | 354 | 2.6 | 3.5 | 0.00 | 0.00 | 0.00 | 79 | 1008.1 |
| 20260505181743 | 57 | 342 | 1.7 | 2.6 | 0.00 | 0.00 | 0.00 | 79 | 1008.1 |
| 20260505181246 | 57 | 353 | 2.6 | 3.5 | 0.00 | 0.00 | 0.00 | 79 | 1007.9 |
| 20260505180745 | 57 | 7 | 3.5 | 4.3 | 0.00 | 0.00 | 0.00 | 79 | 1007.8 |
| 20260505180243 | 57 | 349 | 2.6 | 3.5 | 0.00 | 0.00 | 0.00 | 79 | 1007.8 |
| 20260505175744 | 57 | 0 | 2.6 | 3.5 | 0.00 | 0.00 | 0.00 | 79 | 1007.9 |
| 20260505175246 | 57 | 0 | 2.6 | 3.5 | 0.00 | 0.00 | 0.00 | 79 | 1007.7 |
| 20260505174745 | 57 | 345 | 1.7 | 1.7 | 0.00 | 0.00 | 0.00 | 79 | 1007.6 |
| 20260505174246 | 57 | 10 | 1.7 | 2.6 | 0.00 | 0.00 | 0.00 | 80 | 1007.6 |
| 20260505173746 | 57 | 359 | 1.7 | 2.6 | 0.00 | 0.00 | 0.00 | 79 | 1007.5 |
| 20260505173247 | 57 | 354 | 2.6 | 3.5 | 0.00 | 0.00 | 0.00 | 80 | 1007.4 |
| 20260505172743 | 57 | 353 | 2.6 | 2.6 | 0.00 | 0.00 | 0.00 | 80 | 1007.3 |
| 20260505172245 | 57 | 7 | 1.7 | 2.6 | 0.00 | 0.00 | 0.00 | 80 | 1007.3 |
| 20260505171745 | 57 | 352 | 3.5 | 4.3 | 0.00 | 0.00 | 0.00 | 81 | 1007.3 |
| 20260505171243 | 57 | 350 | 2.6 | 4.3 | 0.00 | 0.00 | 0.00 | 81 | 1007.2 |
| 20260505170746 | 57 | 358 | 2.6 | 3.5 | 0.00 | 0.00 | 0.00 | 81 | 1006.9 |
| 20260505170244 | 57 | 1 | 2.6 | 4.3 | 0.00 | 0.00 | 0.00 | 82 | 1007.0 |
| 20260505165744 | 57 | 349 | 2.6 | 4.3 | 0.00 | 0.00 | 0.00 | 82 | 1006.9 |
| 20260505165244 | 57 | 5 | 2.6 | 3.5 | 0.00 | 0.00 | 0.00 | 81 | 1006.8 |
| 20260505164743 | 57 | 0 | 3.5 | 4.3 | 0.00 | 0.00 | 0.00 | 82 | 1006.7 |
| 20260505164245 | 57 | 357 | 2.6 | 3.5 | 0.00 | 0.00 | 0.00 | 83 | 1006.6 |
| 20260505163743 | 58 | 7 | 3.5 | 5.2 | 0.00 | 0.00 | 0.00 | 83 | 1006.4 |
| 20260505163244 | 58 | 5 | 2.6 | 2.6 | 0.00 | 0.00 | 0.00 | 83 | 1006.3 |
| 20260505162744 | 58 | 349 | 2.6 | 3.5 | 0.00 | 0.00 | 0.00 | 83 | 1006.2 |
| 20260505162245 | 58 | 357 | 3.5 | 4.3 | 0.00 | 0.00 | 0.00 | 83 | 1006.0 |
| 20260505161745 | 58 | 8 | 1.7 | 2.6 | 0.00 | 0.00 | 0.00 | 82 | 1005.6 |
| 20260505161245 | 59 | 356 | 3.5 | 3.5 | 0.00 | 0.00 | 0.00 | 82 | 1005.6 |
| 20260505160743 | 59 | 351 | 1.7 | 3.5 | 0.00 | 0.00 | 0.00 | 82 | 1005.4 |
| 20260505160246 | 60 | 335 | 1.7 | 1.7 | 0.00 | 0.00 | 0.00 | 82 | 1005.1 |
| 20260505153243 | 62 | 354 | 1.7 | 2.6 | 0.00 | 0.00 | 0.00 | 83 | 1004.5 |
| 20260505152745 | 62 | 353 | 1.7 | 3.5 | 0.00 | 0.00 | 0.00 | 83 | 1004.5 |
| 20260505152245 | 63 | 1 | 2.6 | 4.3 | 0.00 | 0.00 | 0.00 | 82 | 1004.3 |
| 20260505151744 | 64 | 358 | 2.6 | 4.3 | 0.00 | 0.00 | 0.00 | 82 | 1004.2 |
| 20260505151244 | 65 | 6 | 1.7 | 2.6 | 0.00 | 0.00 | 0.00 | 81 | 1003.9 |
| 20260505150745 | 67 | 1 | 2.6 | 4.3 | 0.00 | 0.00 | 0.00 | 79 | 1003.7 |
| 20260505150245 | 69 | 7 | 2.6 | 2.6 | 0.00 | 0.00 | 0.00 | 83 | 1003.5 |
| 20260505140249 | 69 | 32 | 0.9 | 1.7 | 0.00 | 0.00 | 0.00 | 84 | 1002.2 |
| 20260505130245 | 70 | 18 | 0.9 | 0.9 | 0.00 | 0.00 | 0.00 | 80 | 1002.0 |
| 20260505124747 | 71 | 10 | 0.9 | 0.9 | 0.00 | 0.00 | 0.00 | 77 | 1002.0 |
| 20260505124245 | 71 | 20 | 0.9 | 0.9 | 0.00 | 0.00 | 0.00 | 77 | 1001.8 |
| 20260505123745 | 71 | 14 | 0.9 | 0.9 | 0.00 | 0.00 | 0.00 | 77 | 1001.8 |
| 20260505123246 | 72 | 18 | 0.9 | 0.9 | 0.00 | 0.00 | 0.00 | 77 | 1001.8 |
| 20260505122745 | 72 | 7 | 0.0 | 0.9 | 0.00 | 0.00 | 0.00 | 75 | 1001.8 |
| 20260505122243 | 72 | 0 | 0.0 | 0.0 | 0.00 | 0.00 | 0.00 | 75 | 1001.6 |
| 20260505121746 | 72 | 0 | 0.0 | 0.0 | 0.00 | 0.00 | 0.00 | 75 | 1001.6 |
| 20260505121245 | 72 | 0 | 0.0 | 0.0 | 0.00 | 0.00 | 0.00 | 75 | 1001.4 |
| 20260505120746 | 72 | 0 | 0.0 | 0.0 | 0.00 | 0.00 | 0.00 | 75 | 1001.4 |
| 20260505120245 | 72 | 157 | 0.0 | 0.9 | 0.00 | 0.00 | 0.00 | 74 | 1001.3 |
| 20260505115745 | 72 | 0 | 0.0 | 0.0 | 0.00 | 0.00 | 0.00 | 74 | 1001.4 |
| 20260505115243 | 72 | 55 | 0.0 | 0.0 | 0.00 | 0.00 | 0.00 | 73 | 1001.3 |
| 20260505114746 | 73 | 0 | 0.0 | 0.0 | 0.00 | 0.00 | 0.00 | 73 | 1001.2 |
| 20260505114245 | 73 | 138 | 0.0 | 0.0 | 0.00 | 0.00 | 0.00 | 73 | 1000.9 |
| 20260505113744 | 73 | 94 | 0.0 | 0.9 | 0.00 | 0.00 | 0.00 | 72 | 1000.9 |
| 20260505113244 | 73 | 0 | 0.0 | 0.0 | 0.00 | 0.00 | 0.00 | 71 | 1000.5 |
| 20260505112744 | 73 | 14 | 0.0 | 0.0 | 0.00 | 0.00 | 0.00 | 72 | 1000.2 |
| 20260505112245 | 73 | 193 | 0.0 | 0.9 | 0.00 | 0.00 | 0.00 | 72 | 999.9 |
| 20260505111746 | 73 | 148 | 0.9 | 1.7 | 0.00 | 0.00 | 0.00 | 72 | 999.9 |
| 20260505111245 | 73 | 148 | 0.9 | 1.7 | 0.00 | 0.00 | 0.00 | 71 | 999.9 |
| 20260505110743 | 73 | 158 | 0.0 | 0.0 | 0.00 | 0.00 | 0.00 | 72 | 999.9 |
| 20260505110245 | 73 | 323 | 0.0 | 0.9 | 0.00 | 0.00 | 0.00 | 71 | 999.9 |
| 20260505101743 | 73 | 155 | 1.7 | 3.5 | 0.00 | 0.00 | 0.00 | 72 | 999.1 |
| 20260505101244 | 73 | 158 | 0.9 | 2.6 | 0.00 | 0.00 | 0.00 | 72 | 999.1 |
| 20260505100746 | 73 | 152 | 2.6 | 3.5 | 0.00 | 0.00 | 0.00 | 72 | 999.1 |
| 20260505100244 | 73 | 156 | 1.7 | 3.5 | 0.00 | 0.00 | 0.00 | 72 | 999.1 |
| 20260505095743 | 74 | 156 | 2.6 | 4.3 | 0.00 | 0.00 | 0.00 | 72 | 999.1 |
| 20260505095243 | 74 | 139 | 3.5 | 6.1 | 0.00 | 0.00 | 0.00 | 72 | 999.1 |
| 20260505094744 | 74 | 125 | 0.9 | 0.9 | 0.00 | 0.00 | 0.00 | 72 | 999.1 |
| 20260505094244 | 74 | 153 | 2.6 | 4.3 | 0.00 | 0.00 | 0.00 | 72 | 999.0 |
| 20260505093745 | 74 | 154 | 1.7 | 2.6 | 0.00 | 0.00 | 0.00 | 72 | 999.0 |
| 20260505093246 | 74 | 166 | 1.7 | 3.5 | 0.00 | 0.00 | 0.00 | 72 | 999.0 |
| 20260505092744 | 74 | 153 | 1.7 | 5.2 | 0.00 | 0.00 | 0.00 | 72 | 999.0 |
| 20260505092243 | 74 | 166 | 3.5 | 6.1 | 0.00 | 0.00 | 0.00 | 72 | 998.9 |
| 20260505091743 | 74 | 151 | 2.6 | 3.5 | 0.00 | 0.00 | 0.00 | 72 | 999.0 |
| 20260505091244 | 74 | 164 | 2.6 | 5.2 | 0.00 | 0.00 | 0.00 | 72 | 999.1 |
| 20260505090744 | 74 | 158 | 3.5 | 6.1 | 0.00 | 0.00 | 0.00 | 72 | 999.2 |
| 20260505090244 | 74 | 103 | 1.7 | 2.6 | 0.00 | 0.00 | 0.00 | 72 | 999.2 |
| 20260505085744 | 74 | 140 | 0.9 | 1.7 | 0.00 | 0.00 | 0.00 | 72 | 999.3 |
| 20260505085244 | 74 | 146 | 3.5 | 5.2 | 0.00 | 0.00 | 0.00 | 72 | 999.3 |
| 20260505084743 | 74 | 137 | 1.7 | 2.6 | 0.00 | 0.00 | 0.00 | 72 | 999.3 |
| 20260505084243 | 74 | 172 | 0.0 | 0.9 | 0.00 | 0.00 | 0.00 | 72 | 999.3 |
| 20260505083746 | 74 | 131 | 0.9 | 1.7 | 0.00 | 0.00 | 0.00 | 72 | 999.4 |
| 20260505083244 | 74 | 143 | 3.5 | 6.1 | 0.00 | 0.00 | 0.00 | 72 | 999.4 |
| 20260505082743 | 74 | 159 | 2.6 | 4.3 | 0.00 | 0.00 | 0.00 | 72 | 999.4 |
| 20260505082244 | 74 | 145 | 1.7 | 3.5 | 0.00 | 0.00 | 0.00 | 72 | 999.5 |
| 20260505081745 | 74 | 158 | 3.5 | 5.2 | 0.00 | 0.00 | 0.00 | 72 | 999.7 |
| 20260505081245 | 74 | 144 | 0.9 | 1.7 | 0.00 | 0.00 | 0.00 | 72 | 999.6 |
| 20260505080743 | 74 | 161 | 3.5 | 7.0 | 0.00 | 0.00 | 0.00 | 72 | 999.6 |
| 20260505080243 | 74 | 149 | 1.7 | 5.2 | 0.00 | 0.00 | 0.00 | 72 | 999.6 |
| 20260505075744 | 74 | 174 | 2.6 | 3.5 | 0.00 | 0.00 | 0.00 | 72 | 999.7 |
| 20260505075243 | 74 | 165 | 1.7 | 3.5 | 0.00 | 0.00 | 0.00 | 72 | 999.7 |
| 20260505074743 | 74 | 152 | 3.5 | 7.8 | 0.00 | 0.00 | 0.00 | 72 | 999.8 |
| 20260505074243 | 74 | 158 | 3.5 | 5.2 | 0.00 | 0.00 | 0.00 | 72 | 999.8 |
| 20260505073744 | 74 | 177 | 1.7 | 4.3 | 0.00 | 0.00 | 0.00 | 72 | 999.8 |
| 20260505073243 | 74 | 168 | 2.6 | 6.1 | 0.00 | 0.00 | 0.00 | 72 | 999.9 |
| 20260505072743 | 74 | 153 | 3.5 | 7.0 | 0.00 | 0.00 | 0.00 | 72 | 999.9 |
| 20260505072244 | 74 | 148 | 1.7 | 3.5 | 0.00 | 0.00 | 0.00 | 72 | 1000.0 |
| 20260505071743 | 74 | 126 | 1.7 | 3.5 | 0.00 | 0.00 | 0.00 | 72 | 1000.1 |
| 20260505071243 | 74 | 157 | 3.5 | 6.1 | 0.00 | 0.00 | 0.00 | 72 | 1000.1 |
| 20260505070743 | 74 | 161 | 3.5 | 4.3 | 0.00 | 0.00 | 0.00 | 72 | 1000.2 |
| 20260505070243 | 74 | 167 | 3.5 | 4.3 | 0.00 | 0.00 | 0.00 | 72 | 1000.2 |
| 20260505065743 | 74 | 177 | 2.6 | 3.5 | 0.00 | 0.00 | 0.00 | 72 | 1000.4 |
| 20260505065243 | 74 | 163 | 2.6 | 6.1 | 0.00 | 0.00 | 0.00 | 72 | 1000.4 |
| 20260505064743 | 74 | 156 | 2.6 | 5.2 | 0.00 | 0.00 | 0.00 | 72 | 1000.5 |
| 20260505064244 | 74 | 149 | 2.6 | 6.1 | 0.00 | 0.00 | 0.00 | 71 | 1000.6 |
| 20260505063744 | 74 | 145 | 1.7 | 3.5 | 0.00 | 0.00 | 0.00 | 71 | 1000.5 |
| 20260505063243 | 74 | 166 | 3.5 | 7.8 | 0.00 | 0.00 | 0.00 | 71 | 1000.5 |
| 20260505062743 | 74 | 178 | 1.7 | 4.3 | 0.00 | 0.00 | 0.00 | 72 | 1000.7 |
| 20260505062243 | 74 | 149 | 1.7 | 4.3 | 0.00 | 0.00 | 0.00 | 71 | 1000.7 |
| 20260505061743 | 74 | 162 | 3.5 | 5.2 | 0.00 | 0.00 | 0.00 | 71 | 1000.8 |
| 20260505061245 | 74 | 168 | 4.3 | 7.0 | 0.00 | 0.00 | 0.00 | 71 | 1000.8 |
| 20260505060743 | 74 | 145 | 1.7 | 5.2 | 0.00 | 0.00 | 0.00 | 71 | 1000.8 |
| 20260505060243 | 74 | 160 | 2.6 | 7.0 | 0.00 | 0.00 | 0.00 | 71 | 1000.9 |
| 20260505055744 | 74 | 152 | 1.7 | 2.6 | 0.00 | 0.00 | 0.00 | 71 | 1000.9 |
| 20260505055248 | 74 | 164 | 4.3 | 7.0 | 0.00 | 0.00 | 0.00 | 71 | 1001.0 |
| 20260505054744 | 74 | 149 | 2.6 | 5.2 | 0.00 | 0.00 | 0.00 | 71 | 1001.0 |
| 20260505054244 | 74 | 156 | 1.7 | 3.5 | 0.00 | 0.00 | 0.00 | 71 | 1001.0 |
| 20260505053743 | 74 | 135 | 2.6 | 5.2 | 0.00 | 0.00 | 0.00 | 71 | 1001.1 |
| 20260505053243 | 74 | 154 | 3.5 | 6.1 | 0.00 | 0.00 | 0.00 | 71 | 1000.9 |
| 20260505052743 | 75 | 151 | 3.5 | 5.2 | 0.00 | 0.00 | 0.00 | 70 | 1001.2 |
| 20260505052244 | 75 | 153 | 4.3 | 8.7 | 0.00 | 0.00 | 0.00 | 70 | 1001.1 |
| 20260505051746 | 75 | 150 | 3.5 | 7.0 | 0.00 | 0.00 | 0.00 | 70 | 1001.1 |
| 20260505051244 | 75 | 130 | 1.7 | 5.2 | 0.00 | 0.00 | 0.00 | 70 | 1001.1 |
| 20260505050744 | 75 | 155 | 2.6 | 3.5 | 0.00 | 0.00 | 0.00 | 70 | 1001.2 |
| 20260505050244 | 75 | 164 | 4.3 | 8.7 | 0.00 | 0.00 | 0.00 | 70 | 1001.3 |
| 20260505041744 | 75 | 158 | 3.5 | 7.8 | 0.00 | 0.00 | 0.00 | 69 | 1001.7 |
| 20260505041244 | 75 | 152 | 4.3 | 7.8 | 0.00 | 0.00 | 0.00 | 69 | 1001.7 |
| 20260505040743 | 76 | 120 | 1.7 | 3.5 | 0.00 | 0.00 | 0.00 | 69 | 1001.7 |
| 20260505040244 | 76 | 154 | 3.5 | 6.1 | 0.00 | 0.00 | 0.00 | 68 | 1001.7 |
| 20260505035743 | 76 | 155 | 3.5 | 7.8 | 0.00 | 0.00 | 0.00 | 68 | 1001.7 |
| 20260505035244 | 76 | 162 | 2.6 | 5.2 | 0.00 | 0.00 | 0.00 | 68 | 1001.7 |
| 20260505034743 | 76 | 69 | 1.7 | 2.6 | 0.00 | 0.00 | 0.00 | 68 | 1001.7 |
| 20260505034244 | 76 | 147 | 3.5 | 7.8 | 0.00 | 0.00 | 0.00 | 68 | 1001.7 |
| 20260505033744 | 76 | 163 | 5.2 | 10.4 | 0.00 | 0.00 | 0.00 | 67 | 1001.6 |
| 20260505033243 | 76 | 143 | 1.7 | 5.2 | 0.00 | 0.00 | 0.00 | 67 | 1001.8 |
| 20260505032743 | 76 | 151 | 5.2 | 7.8 | 0.00 | 0.00 | 0.00 | 67 | 1001.6 |
| 20260505031757 | 76 | 126 | 2.6 | 4.3 | 0.00 | 0.00 | 0.00 | 66 | 1001.6 |
| 20260505031243 | 77 | 148 | 3.5 | 10.4 | 0.00 | 0.00 | 0.00 | 66 | 1001.5 |
| 20260505030743 | 77 | 151 | 3.5 | 6.1 | 0.00 | 0.00 | 0.00 | 66 | 1001.4 |
| 20260505030243 | 77 | 34 | 1.7 | 5.2 | 0.00 | 0.00 | 0.00 | 66 | 1001.4 |
| 20260505025743 | 77 | 145 | 1.7 | 8.7 | 0.00 | 0.00 | 0.00 | 65 | 1001.4 |
| 20260505025244 | 77 | 144 | 2.6 | 5.2 | 0.00 | 0.00 | 0.00 | 65 | 1001.2 |